Weather in Ottawa

Canada     45°24′06″N   75°41′58″W
temp.,
°C
wind,
m/s
gust,
m/s
humid.,
%
clouds,
%
prec.,
mm/h
press.,
hPa
HPBL,
m
3 august, tue
tue323:00+14ssw22745 0.0 101611
02:00+12w23792 0.0 101639
05:00+10wsw23862 0.0 101646
08:00+15wsw37727 0.0 1016274
11:00+22wsw57555 0.0 10161059
14:00+26w574657 0.0 10152011
17:00+26wsw474635 0.0 10141793
20:00+20wsw236845 0.0 101562
4 august, wed
wed423:00+16w238415 0.0 101747
02:00+15nnw12923 0.0 101715
05:00+14wnw11934 0.0 101811
08:00+18wsw12815 0.0 1020167
11:00+23wsw235517 0.0 1020809
14:00+26wsw33451 0.0 10191342
17:00+27sw23434 0.0 10181575
20:00+22s226557 0.0 101917
5 august, thu
thu523:00+18sw11813 0.3 102011
02:00+16w118513 0.5 102011
05:00+15se118820 0.0 102012
08:00+18s11823 0.0 1020112
11:00+25sw22530 0.0 1020637
14:00+28wsw23420 0.0 10181684
17:00+28wsw23405 0.0 10171928
20:00+23sse11580 0.0 101714
6 august, fri
fri623:00+18sw237615 0.0 101842
02:00+16wsw22775 0.0 101834
05:00+15sw1178100 0.0 101818
08:00+19sw236397 0.0 1019163
11:00+25sw355081 0.0 1019740
14:00+29ssw35385 0.0 10171972
17:00+30ssw36335 0.0 10152478
20:00+24ssw5125584 0.0 1014534
7 august, sat
sat723:00+21ssw277297 0.0 1014144
02:00+18ssw2288100 0.0 101344
05:00+18ssw21089100 0.0 1011279
08:00+20sw5138986 0.8 1010851
11:00+25w8126219 0.1 10111361
14:00+26wnw695899 0.2 10111606
17:00+25nw696247 0.1 10121249
20:00+19n59743 0.2 1014605